Dewpoint
33 33 34 34 35 36 37 37 37 38 37 37 38 39 40 40 42 43 43 43 43 44 44 43 42 43 44 44 47 51 58 60 58 58 59 58 58 59 60 59 60 60 59
32 33 33 33 33 33 34 35 35 34 34 34 35 36 37 37 38 38 38 38 39 40 39 38 38 38 38 39 42 43 45 47 49 56 58 58 58 59 60 60 60 60 60
32 32 33 33 33 32 32 33 31 31 32 32 33 33 34 36 35 35 35 35 35 35 35 34 34 34 34 35 38 38 41 42 47 48 53 57 58 58 58 59 59 60 60
31 31 32 32 33 32 31 30 30 28 28 29 30 31 32 32 34 34 34 33 32 32 33 33 32 32 33 33 35 36 39 40 42 44 47 50 55 58 58 57 57 58 58
28 29 30 31 31 31 30 28 27 27 27 27 27 27 29 29 31 32 31 31 30 30 31 31 31 32 32 32 32 33 36 34 35 38 41 41 45 44 46 51 57 57 58
25 27 28 29 28 28 29 28 25 24 23 25 25 26 26 27 29 30 30 29 29 29 28 28 29 30 29 30 31 31 32 31 31 32 34 35 35 37 37 37 41 47 54
24 23 24 26 26 26 26 26 25 22 22 21 22 23 24 26 27 27 28 26 27 27 27 27 27 27 28 27 29 29 30 29 28 30 31 32 32 33 33 33 35 38 41
25 23 20 20 22 23 22 23 24 23 20 20 20 20 21 22 26 26 25 25 26 26 26 26 25 26 26 27 26 26 27 27 28 28 28 30 30 31 32 32 33 36 39
27 24 23 20 19 20 20 20 20 20 21 19 19 20 19 21 24 25 23 22 23 24 26 24 25 25 26 27 24 24 24 24 27 28 28 28 29 29 30 30 29 29 32
25 27 24 22 21 20 21 20 20 19 18 18 18 18 20 19 22 24 23 21 21 22 24 23 25 25 24 24 24 22 22 23 24 24 24 25 27 28 29 29 29 26 27
23 25 26 24 22 21 21 21 20 19 17 15 15 16 17 20 19 22 23 20 19 20 21 20 20 22 22 22 23 22 23 23 23 24 24 24 24 25 26 27 28 28 26
23 22 23 24 23 22 18 20 19 18 16 15 14 15 17 16 20 19 21 21 20 19 17 17 17 20 20 20 20 21 22 20 22 22 21 20 21 22 23 26 27 26 28
20 20 21 21 22 23 20 19 18 17 16 14 14 13 14 18 19 19 19 20 17 16 16 15 15 16 17 17 18 18 18 18 19 19 19 20 20 21 21 23 26 25 25
19 20 19 19 20 21 21 20 18 16 15 15 13 12 11 14 18 17 15 15 16 15 13 11 9 13 8 10 12 14 15 15 16 15 19 20 20 20 19 21 22 22 20
18 19 20 18 19 19 20 19 21 20 18 16 11 8 10 11 17 17 15 13 13 13 9 10 8 7 6 7 8 9 11 12 12 14 13 16 18 19 19 20 20 20 19
15 17 19 21 19 19 18 17 20 19 20 23 18 16 10 15 15 16 14 12 13 12 7 5 6 5 5 5 6 6 7 9 10 11 11 12 13 16 19 19 19 18 18
15 15 16 17 18 17 15 15 11 14 18 18 17 16 15 14 14 14 13 10 11 10 5 4 4 4 3 3 5 5 4 7 7 7 9 9 10 11 17 17 18 18 17
15 13 10 8 6 10 7 8 6 4 2 5 14 15 14 13 13 13 12 9 6 7 6 1 2 4 3 1 2 4 2 3 2 2 5 6 7 8 12 16 16 16 17
17 12 8 7 6 8 7 6 7 6 3 1 5 10 8 15 13 14 12 -1 -4 0 6 5 2 5 3 1 -0 1 -1 -1 -2 -3 1 2 3 5 9 13 14 14 15
13 11 10 10 8 7 6 5 6 5 2 -1 -0 -0 3 4 -4 -8 -8 -11 -10 -2 -0 5 5 5 -2 -1 -6 -13 -4 -5 -5 -4 -4 -1 1 4 6 10 13 13 14
3 7 7 9 6 5 4 4 4 1 -0 -1 -2 -5 0 1 -3 -4 -2 -1 -2 -2 -5 1 -2 -6 -5 -6 -1 -8 -8 -13 -7 -6 -6 -3 -2 -0 4 10 12 13 14
5 6 8 6 7 4 3 5 1 -1 -0 0 -0 4 2 -4 -1 0 0 -4 -4 -3 -2 -3 -3 0 2 1 -6 -17 -13 -14 -13 -8 -8 -5 -3 -1 3 8 9 11 12
4 4 6 8 6 4 1 2 -0 -3 -1 -1 2 3 1 -4 -7 -2 -3 -7 -3 -5 -4 -5 -11 -1 0 -5 -12 -8 -11 -8 -8 -10 -12 -6 -3 -0 2 5 7 8 8
5 3 7 6 1 3 -4 -5 -3 1 3 1 -4 -2 -2 -1 -5 -4 -3 -5 -8 -10 -12 -13 -7 -1 0 -8 -10 -6 -4 -10 -11 -10 -12 -7 -3 1 2 3 5 7 6
1 -2 1 2 1 -1 -6 -2 -4 -6 -5 -3 -2 -6 1 1 0 -1 -4 -5 -6 -12 -7 -9 -9 -6 -7 -7 -5 -4 -11 -11 -14 -14 -7 -6 -7 -6 -3 2 2 5 3
5 5 2 1 2 1 -2 -1 1 -5 -3 -0 -1 -1 1 7 7 4 2 -2 -7 -4 -6 -5 -7 -7 -6 -5 -3 -3 -10 -13 -15 -13 -9 -7 -10 -10 -8 -5 0 1 3
Lifted_Index
15 16 15 14 13 11 11 10 7 3 1 1 1 2 2 2 2 2 2 3 3 3 2 2 0 -1 -2 -2 -2 -1 -1 -1 -1 -0 -0 0 0 -0 0 0 0 -0 -1
14 14 14 15 14 13 13 12 8 4 1 1 2 2 2 2 3 2 2 3 3 3 2 2 1 -0 -1 -1 -1 -1 -1 -1 -0 0 -0 -0 -0 -0 1 1 1 -0 -0
13 13 13 14 15 15 15 14 10 6 3 3 3 3 3 3 4 4 4 4 4 4 3 2 2 1 1 0 0 0 1 1 1 1 1 1 0 0 1 1 1 1 0
13 13 13 14 15 15 15 14 11 9 7 6 6 5 5 5 5 6 6 7 6 6 5 5 4 4 3 3 2 2 3 3 3 3 3 2 2 1 1 1 1 1 1
16 15 16 16 16 15 15 14 13 12 11 10 9 8 8 9 9 10 9 9 8 8 8 9 9 8 8 7 7 6 6 5 4 4 4 4 3 3 2 2 2 1 1
17 18 18 18 17 17 16 16 16 15 15 14 13 13 13 14 15 14 14 13 12 12 12 13 13 13 13 12 12 11 10 8 7 6 6 5 5 4 4 3 3 2 2
18 18 18 18 18 18 18 17 17 17 17 16 16 16 16 17 18 18 17 17 16 16 16 16 16 17 17 16 16 15 14 13 12 10 9 8 7 7 6 5 4 3 3
17 18 18 18 18 18 17 17 17 17 17 17 17 17 17 18 18 18 18 18 17 17 18 18 18 18 18 18 18 17 17 16 15 15 14 13 12 11 10 8 6 5 4
17 18 18 18 18 18 18 18 18 18 18 18 18 18 18 18 18 19 18 18 17 18 18 19 19 19 19 19 18 17 17 18 18 17 17 16 16 15 14 12 9 6 5
18 18 19 19 19 19 19 19 19 19 19 19 19 19 19 20 20 20 19 18 18 18 19 20 21 21 21 21 20 19 18 18 19 18 18 18 17 17 16 14 12 9 7
19 19 19 19 20 20 20 20 20 20 20 19 20 20 21 21 22 22 21 20 19 19 20 20 21 22 22 22 21 20 20 20 19 19 19 18 18 17 17 16 15 13 11
19 19 19 19 20 20 20 20 20 20 19 19 19 20 21 22 22 23 22 22 22 21 21 22 22 22 22 22 22 22 21 21 20 20 19 19 19 18 18 18 18 17 16
18 18 18 19 19 19 19 19 19 19 18 18 19 19 20 22 22 23 23 23 22 22 22 23 23 23 23 23 22 22 22 22 21 21 20 20 20 20 20 19 19 18 18
17 17 17 18 18 19 19 19 19 19 19 18 19 19 20 21 22 23 23 23 23 23 23 23 23 23 23 23 23 23 23 23 22 22 22 22 22 21 21 20 19 18 18
16 16 17 17 18 18 19 20 20 21 20 20 20 21 21 22 23 24 24 24 24 24 24 23 23 23 23 23 23 23 23 24 23 23 23 23 23 23 22 22 21 19 18
15 16 16 17 17 18 18 19 20 21 22 22 23 23 23 24 25 25 25 25 25 25 24 23 23 23 23 23 23 24 24 25 25 25 25 25 24 24 24 23 23 21 20
15 16 16 17 17 17 17 17 19 20 21 22 23 24 25 25 26 26 26 26 25 25 24 24 24 24 24 24 24 24 24 25 26 25 25 25 25 25 24 24 23 23 22
16 16 17 17 18 18 18 18 19 19 20 21 23 24 25 26 26 26 26 26 25 25 25 25 25 25 26 25 25 25 25 25 25 24 24 24 24 24 23 23 23 23 23
17 17 18 18 19 19 19 19 20 20 21 22 23 24 25 26 26 26 26 26 25 25 26 26 26 26 26 26 25 24 24 23 22 22 21 21 21 21 21 21 21 22 22
17 18 19 19 19 19 20 20 20 21 22 22 23 25 25 26 25 26 26 26 26 26 26 27 27 26 26 25 24 23 22 21 20 20 19 19 18 19 19 19 19 19 19
18 18 19 19 20 20 20 20 21 22 22 23 24 25 26 26 25 26 26 26 26 26 26 26 25 25 24 23 22 21 20 19 19 18 18 17 17 17 17 17 17 17 17
18 19 19 20 20 20 21 21 22 23 23 24 25 25 26 26 26 26 26 26 26 25 25 24 23 23 22 22 21 21 20 19 18 18 17 17 17 17 16 16 15 15 15
19 19 20 20 20 21 22 22 23 24 24 24 25 25 25 25 25 25 25 25 24 23 23 22 22 21 21 21 21 21 20 19 19 18 17 17 16 16 15 15 14 14 13
20 20 20 20 21 22 22 23 24 24 24 24 24 24 24 24 24 24 23 22 22 21 21 21 20 20 20 20 21 21 20 20 19 18 18 17 16 16 15 14 14 13 13
20 20 20 21 21 22 23 23 23 24 24 24 24 24 24 23 23 22 21 20 20 19 19 19 19 19 20 20 20 20 20 20 19 18 18 17 16 15 15 14 14 14 14
20 20 21 21 22 22 23 23 23 23 23 23 23 23 23 23 22 20 19 19 19 18 18 19 19 19 19 20 20 20 20 19 18 18 18 17 16 15 15 15 14 14 14